Wind_Speed
25 25 24 23 23 22 22 21 21 20 20 20 19 19 19 18 18 17 17 17 17 17 16 16 16 16 16 17 17 17 18 18 19 19 19 19 20 20 21 21 21 21 21 22 22 22 22 22 21 21 21 20 19 18 17 18 18 18 19 19 20 20 22 23 24 24 24 24 24 22 20 22 22 21 21 22 24 25 25 28 28 25 26 27 26 25 23 24
25 25 24 24 23 22 22 21 21 21 21 21 21 20 20 20 20 20 20 20 20 20 19 19 19 19 19 19 20 20 21 22 22 22 21 22 22 23 23 23 23 23 23 23 23 23 23 23 22 22 20 19 18 18 18 19 20 20 21 21 20 22 24 24 25 25 24 24 24 23 22 21 22 22 20 21 23 25 24 26 30 27 27 28 26 25 24 24
25 25 24 24 24 23 23 23 23 23 23 23 23 23 23 23 23 23 23 23 22 22 22 22 22 22 22 22 22 23 24 25 26 25 24 24 25 25 25 25 25 24 24 24 24 24 24 23 23 21 20 19 19 20 20 21 22 21 22 22 21 23 24 25 26 26 26 25 25 25 24 23 23 22 21 21 22 23 24 26 30 28 27 28 28 26 24 24
26 26 25 25 25 25 25 25 25 25 25 25 25 25 25 25 25 26 26 25 26 25 25 25 25 25 25 25 25 25 27 28 28 28 27 27 27 27 27 26 26 26 25 25 25 25 24 24 23 21 20 20 20 22 22 22 24 23 23 24 24 25 25 26 27 27 27 27 26 27 27 26 24 23 22 24 21 19 24 28 29 28 27 28 27 26 24 25
28 28 28 28 28 28 28 28 28 28 28 28 28 28 28 28 28 28 28 28 28 28 28 28 28 28 28 28 28 28 29 31 30 29 29 29 29 29 28 27 27 26 26 25 25 25 24 24 23 22 22 23 23 24 24 25 27 26 24 25 26 28 28 27 28 28 28 29 28 29 30 28 27 24 24 25 20 18 25 30 30 28 27 26 26 25 25 25
31 31 31 31 31 31 30 30 30 30 30 30 30 30 31 31 31 31 31 31 31 31 31 30 30 30 30 30 31 31 31 33 33 31 31 31 31 30 28 27 26 26 26 26 26 25 25 25 24 25 24 25 26 26 27 28 29 29 26 27 28 29 29 29 30 29 29 31 29 31 32 30 30 27 26 26 21 19 26 32 33 29 26 25 24 26 26 26
34 34 34 33 33 33 33 33 33 34 33 33 33 33 33 33 33 33 33 33 33 33 33 33 33 33 33 33 33 33 33 35 36 33 32 31 30 28 27 27 26 26 26 26 26 26 26 26 26 27 27 28 28 29 30 31 31 31 28 28 29 29 29 30 31 30 30 32 32 33 33 31 32 31 27 26 24 23 27 33 34 30 28 27 26 27 27 27
35 35 35 35 35 35 35 35 36 36 36 36 36 36 36 36 36 36 36 36 36 36 35 36 35 35 35 34 34 33 32 36 36 34 31 29 27 27 26 26 26 27 27 27 27 28 28 28 29 30 30 31 31 31 32 33 33 31 29 30 30 29 29 30 31 31 31 33 34 36 35 32 34 33 27 24 27 28 30 33 33 31 31 30 29 29 28 28
34 34 34 33 33 33 33 34 34 35 36 36 37 37 37 38 38 38 38 37 37 37 37 36 36 35 35 33 33 30 30 34 34 32 30 28 27 26 26 26 27 28 29 29 30 30 30 31 32 32 33 33 32 33 34 34 34 32 31 31 31 30 30 31 31 32 34 35 36 38 36 34 35 34 27 25 29 31 32 33 34 34 32 32 31 29 29 28
34 33 33 32 32 32 32 32 32 33 33 34 34 35 36 36 37 37 37 37 36 36 35 35 34 33 31 30 29 25 27 32 31 30 30 28 28 27 28 29 30 30 31 32 32 33 33 33 34 34 35 34 33 34 34 35 35 34 34 33 32 32 32 33 33 34 37 37 37 39 38 34 35 34 27 28 32 32 33 33 34 35 33 32 32 31 30 29
35 34 34 34 33 33 33 33 32 32 32 32 33 33 34 34 34 35 35 34 34 34 33 32 31 30 29 27 25 23 27 31 30 31 31 30 30 30 31 32 33 33 33 33 34 34 35 35 35 36 36 34 34 35 35 35 36 35 36 35 34 35 34 34 35 36 39 39 37 41 40 34 33 32 27 29 34 34 34 33 32 34 34 33 33 32 32 30
37 37 37 36 36 36 36 35 35 34 34 34 33 33 33 33 33 33 33 33 33 33 32 32 31 30 29 27 24 26 29 31 31 32 33 34 34 33 34 34 34 35 35 35 35 36 37 36 36 37 36 35 35 36 35 35 37 37 38 39 36 37 37 34 36 37 39 41 38 42 44 38 32 31 29 31 33 34 35 33 31 33 33 33 34 34 33 32
40 40 39 39 39 38 38 38 37 37 37 36 35 35 35 34 34 34 34 34 34 34 34 34 33 33 32 28 26 30 32 32 34 35 36 37 36 36 36 36 36 37 37 38 38 38 39 38 38 38 37 37 37 36 37 37 37 37 40 42 38 39 39 35 36 37 39 41 40 44 48 44 35 30 32 34 33 33 34 32 31 31 32 33 34 34 34 34
42 41 41 41 40 40 39 39 39 39 38 38 38 37 37 37 37 36 36 36 36 36 36 36 36 36 35 31 30 33 35 36 37 38 38 38 37 37 37 38 38 39 39 40 40 40 41 40 41 40 39 38 38 38 39 40 39 38 42 44 42 43 41 37 35 36 39 42 42 45 49 48 39 30 32 36 35 35 36 34 31 31 32 32 33 34 34 35
42 42 42 41 41 40 40 40 40 40 39 39 39 39 39 39 39 39 40 40 40 40 40 40 40 40 39 35 34 36 37 38 39 39 40 39 39 39 39 40 40 40 41 41 41 42 42 42 42 42 41 39 40 39 40 43 42 39 43 45 45 45 43 40 38 34 37 42 44 46 49 49 43 34 32 36 36 36 37 35 32 32 33 32 32 34 34 34
42 42 42 42 41 41 40 40 40 40 40 40 40 40 40 41 41 41 42 42 42 42 42 42 42 43 42 38 36 37 39 40 41 41 41 41 41 41 41 42 42 42 43 43 43 43 43 44 43 43 43 40 40 41 42 45 45 42 45 47 46 47 46 45 42 37 37 41 45 46 47 46 44 39 34 33 37 38 38 36 33 33 34 33 33 34 34 34
43 43 43 42 42 42 41 41 41 41 41 41 41 41 41 42 42 42 43 43 43 43 44 44 43 44 44 41 38 39 40 42 42 43 43 43 43 43 43 44 44 44 44 44 44 44 44 45 45 45 44 41 40 42 44 47 46 46 49 48 47 47 47 46 43 40 39 42 45 45 44 44 44 43 38 33 36 39 39 37 35 34 34 33 34 35 35 35
44 44 44 44 43 43 43 43 43 43 43 43 43 43 43 43 44 44 44 44 44 45 45 45 44 45 45 42 40 40 41 43 43 43 44 43 44 44 45 45 45 45 45 45 45 45 46 47 47 48 46 41 41 44 47 48 47 48 50 50 50 49 48 48 45 43 43 44 44 45 45 44 45 45 43 39 38 39 39 37 36 36 34 35 35 35 36 36
44 44 44 44 44 44 44 44 44 45 44 44 44 44 45 45 45 45 45 45 45 45 46 46 44 45 46 44 42 42 42 43 43 43 43 43 44 44 45 46 46 46 46 47 47 46 47 49 49 49 45 42 45 47 47 48 48 50 50 51 52 51 50 49 47 46 47 46 45 45 46 46 47 47 46 44 42 42 41 39 38 37 36 37 36 35 36 38
44 44 44 44 44 43 44 44 45 45 45 45 45 45 46 45 45 46 46 45 46 46 46 46 45 45 45 45 44 44 44 43 44 43 42 43 43 44 45 46 46 47 47 48 49 47 48 51 52 49 44 44 49 50 48 48 49 51 51 51 52 53 52 50 49 49 50 50 48 48 48 47 48 48 47 48 46 45 43 41 40 40 40 39 36 35 36 38
45 45 45 45 44 44 44 45 46 46 46 46 46 46 46 46 46 48 47 45 46 45 45 46 46 45 44 45 45 45 45 44 43 41 41 42 42 44 44 44 46 47 47 48 49 49 49 52 53 49 45 47 49 50 50 49 49 51 52 53 53 54 54 53 53 52 51 53 52 52 52 50 50 49 48 49 48 46 44 42 41 41 42 41 38 36 36 36
47 47 47 46 46 46 46 47 48 47 47 48 48 48 48 48 48 49 49 47 45 45 46 46 46 46 46 47 46 45 46 45 43 42 41 42 42 44 45 44 45 46 48 48 48 50 51 53 53 50 48 49 49 50 52 51 51 52 53 54 55 55 55 56 56 55 54 55 55 56 56 55 54 52 51 51 47 45 45 44 42 41 41 40 39 37 36 35
50 50 49 49 49 49 49 50 50 50 50 50 50 50 50 50 51 51 51 50 47 45 46 47 47 48 48 49 47 47 47 46 46 44 42 43 43 44 45 45 45 46 47 47 47 49 52 54 53 49 49 51 51 51 52 52 53 53 54 55 57 56 57 58 59 59 58 57 57 58 58 58 58 57 56 55 49 43 42 43 42 40 39 38 38 37 36 35
53 53 52 52 52 52 53 53 53 53 53 52 52 52 52 52 52 52 52 52 50 47 45 47 49 49 50 50 49 48 48 47 46 45 42 43 44 43 44 45 45 46 46 46 46 48 51 54 53 50 51 52 53 53 53 53 54 54 55 56 56 57 58 59 59 60 61 60 59 59 59 59 59 59 58 57 52 46 44 43 41 39 38 37 36 36 35 33
53 54 54 54 54 55 55 56 56 55 55 55 55 55 54 54 54 53 53 54 54 51 48 48 50 51 51 51 50 49 49 47 46 45 43 43 43 42 43 43 43 45 45 44 46 48 49 50 51 51 52 52 53 53 52 52 54 54 56 55 54 56 57 58 59 60 60 61 62 61 60 59 58 57 57 55 52 50 50 47 43 40 38 35 33 32 30 29
52 52 52 52 53 54 54 55 55 55 56 56 56 56 56 56 56 55 55 55 57 57 54 52 51 51 51 51 50 49 48 46 44 43 42 41 41 41 42 42 42 43 44 44 45 47 47 47 47 49 51 51 52 51 49 51 54 55 55 53 53 54 55 55 56 56 57 58 59 59 59 59 56 53 54 52 49 50 52 49 46 43 38 31 25 25 25 24
49 49 49 50 50 51 51 51 52 53 54 54 54 55 55 55 55 55 54 55 58 59 58 56 53 51 50 48 48 47 46 45 45 44 43 42 42 42 44 44 43 43 45 45 47 47 46 45 46 47 49 50 51 50 49 51 53 54 53 50 49 49 49 50 50 51 53 54 56 56 56 55 53 51 51 50 48 51 50 47 47 44 36 27 22 27 30 27
48 48 48 47 47 47 48 48 49 51 52 52 53 53 53 53 53 52 50 53 58 60 58 55 53 52 49 48 48 48 47 47 46 46 45 44 44 43 44 44 44 44 45 45 47 47 46 45 46 47 48 49 48 48 49 49 49 50 50 48 46 45 46 47 48 49 51 52 55 55 52 51 50 49 51 51 50 51 51 47 45 38 31 30 31 36 41 36
47 46 45 45 45 45 46 47 48 49 50 51 52 52 52 51 51 49 49 54 59 60 56 53 51 51 50 49 49 49 49 48 48 48 47 46 46 45 44 43 43 44 43 44 46 46 46 45 46 46 47 46 47 47 47 47 47 47 46 46 45 45 46 47 48 49 50 52 54 53 51 50 50 49 51 54 52 52 52 47 42 36 32 36 40 42 46 45
46 45 45 45 45 45 46 47 48 49 50 50 51 51 51 51 50 49 52 57 59 56 53 51 49 49 49 50 50 50 49 49 49 49 49 49 48 47 45 44 44 44 44 44 44 44 45 45 45 46 46 46 47 47 46 46 46 46 45 46 47 48 49 49 50 50 51 53 54 52 52 51 51 52 53 55 54 53 51 44 42 43 42 44 46 46 49 48
47 47 47 47 46 44 45 46 47 48 48 49 50 50 50 50 50 50 55 57 54 51 49 49 49 47 47 48 49 49 50 50 50 50 49 49 48 47 46 46 46 45 45 45 45 46 45 45 46 47 47 47 49 49 48 47 47 47 48 49 50 52 53 53 54 53 53 54 53 53 54 54 54 55 54 55 54 51 49 50 51 51 50 50 51 51 52 52
49 49 48 47 46 46 47 47 48 48 49 49 49 50 50 51 53 55 56 54 51 50 48 49 49 48 48 48 48 49 49 49 49 48 47 47 46 46 45 46 46 47 48 49 50 50 49 49 51 51 50 50 50 50 50 50 49 50 51 51 52 54 55 56 56 56 56 57 57 57 58 58 59 58 56 56 55 49 50 56 59 57 55 55 55 55 55 54
49 49 48 47 47 49 51 52 51 51 51 51 52 53 53 54 57 59 57 53 52 51 49 48 50 49 48 48 47 47 47 47 47 47 47 47 47 47 47 47 48 49 51 52 53 55 55 55 54 54 53 53 52 52 52 52 53 53 52 52 53 53 55 56 56 56 58 59 60 61 61 62 63 61 59 58 57 53 53 57 61 61 61 59 57 57 57 56
49 48 48 48 49 51 52 53 52 52 52 53 54 54 55 57 59 59 57 54 51 49 48 48 48 48 48 48 47 46 45 45 45 45 46 47 48 48 48 49 49 50 51 52 54 56 58 58 57 56 55 53 53 52 52 53 54 55 54 52 53 52 52 53 53 55 58 59 60 62 63 64 62 60 60 59 59 58 58 60 62 63 63 62 60 59 59 60
49 48 48 49 50 52 52 52 52 52 52 50 48 49 53 55 55 55 54 52 50 48 49 49 48 49 50 49 48 48 47 47 47 47 47 47 48 48 48 49 49 47 47 49 51 53 53 54 55 56 54 52 51 52 52 53 54 55 55 54 53 52 49 50 53 54 57 59 62 63 65 65 61 59 60 61 61 61 62 63 64 64 64 64 64 63 63 62
49 48 47 46 47 48 49 49 49 49 47 44 44 48 52 51 50 52 52 50 49 48 46 46 47 48 49 50 50 51 52 52 52 52 52 52 51 51 50 49 49 48 48 49 50 51 51 52 52 53 54 53 52 52 53 52 53 55 55 54 54 53 51 54 56 56 57 60 63 63 63 63 60 60 63 64 63 64 65 65 66 66 65 65 65 65 65 65
47 46 45 44 44 44 45 45 44 43 42 41 42 44 47 46 46 47 48 48 48 46 44 44 45 46 47 49 51 53 54 53 53 53 53 53 54 53 51 50 50 50 51 52 53 54 55 55 54 53 56 57 55 55 55 55 56 57 56 56 55 56 57 58 59 59 59 63 65 64 63 63 62 63 67 67 67 67 68 68 67 66 66 66 66 67 69 69
53 52 50 48 48 49 49 49 48 47 48 48 47 45 45 45 45 46 46 46 46 46 46 47 48 48 49 50 51 53 54 53 52 52 52 53 54 53 52 53 53 53 55 57 59 60 62 61 60 58 60 62 61 60 61 61 60 59 58 57 57 58 59 58 59 61 62 64 65 63 62 63 62 61 62 64 65 65 65 65 65 66 68 69 69 69 70 69
62 62 61 59 56 56 56 56 56 56 57 59 58 56 56 55 55 54 53 52 53 54 54 54 55 55 55 54 53 55 57 56 57 59 60 60 60 60 59 60 61 62 63 63 63 64 64 65 65 63 63 65 65 65 65 62 60 59 58 59 58 59 59 58 58 59 60 62 61 59 57 56 55 54 54 56 59 60 61 63 65 66 66 66 65 64 64 63
67 67 66 64 62 60 58 58 59 59 59 60 60 59 60 59 58 57 57 58 60 62 62 62 62 62 61 61 60 60 61 62 62 64 65 65 65 66 66 66 66 66 66 64 63 63 62 62 62 60 60 63 64 62 58 55 55 54 54 54 54 55 56 56 56 54 54 57 58 56 56 52 48 48 50 53 56 58 60 62 62 61 60 60 59 59 59 60
67 67 66 64 63 62 61 61 61 60 59 58 57 57 58 58 57 56 57 58 61 63 63 63 63 63 63 64 63 61 62 63 63 63 64 65 65 66 66 64 63 62 62 61 60 59 59 59 57 54 55 58 58 56 53 53 54 53 52 51 50 50 50 52 53 50 49 54 54 54 56 53 47 48 50 51 53 55 57 58 58 59 60 61 61 60 61 62
67 67 66 65 64 64 64 64 64 62 61 60 57 55 55 55 56 56 56 57 59 61 62 62 63 64 65 65 63 62 62 62 62 61 62 62 62 62 61 60 58 58 57 56 56 56 56 57 57 56 56 56 56 54 56 57 56 54 54 53 51 51 50 50 53 52 51 55 55 55 59 56 49 48 50 50 51 52 55 57 59 60 61 62 62 63 64 65
66 66 66 65 65 65 65 66 66 66 65 62 58 55 55 55 55 56 57 58 58 58 60 61 62 63 64 65 65 64 63 63 62 61 60 59 57 57 56 55 54 54 53 54 55 55 55 56 57 58 58 57 56 55 56 57 56 56 54 52 51 50 49 50 53 54 55 56 54 56 60 57 53 52 53 54 56 56 57 59 60 62 62 62 63 65 67 69
65 66 66 65 65 66 67 66 66 65 64 62 61 59 58 58 58 59 60 60 59 59 59 60 60 61 61 62 63 64 63 64 64 62 60 59 57 56 55 54 53 53 53 54 55 55 56 56 56 57 59 59 57 56 56 56 55 55 51 48 49 50 49 52 54 54 56 56 55 56 60 59 58 59 59 61 64 65 64 65 66 67 68 69 71 73 76 78
66 66 66 66 66 67 67 67 66 66 65 64 64 63 62 62 62 62 61 60 60 59 60 60 59 59 59 60 61 61 61 61 61 59 57 56 55 55 54 54 54 54 54 55 55 55 57 57 57 58 60 61 59 58 58 56 56 56 53 51 53 53 53 54 56 57 60 61 59 59 59 58 58 60 65 68 70 70 69 69 70 70 70 72 74 76 77 78
66 67 66 66 67 68 67 66 66 66 66 65 64 64 63 62 62 60 59 59 59 59 59 59 58 58 59 59 59 58 57 57 58 57 55 55 55 54 54 54 54 55 54 55 55 56 58 58 58 59 61 62 61 61 59 59 60 61 59 58 58 59 59 60 62 65 67 68 68 66 66 67 68 68 70 71 72 72 71 71 72 72 72 73 73 73 73 74
67 67 67 66 67 68 67 66 66 66 65 64 64 64 62 61 61 61 60 59 59 58 58 58 58 58 57 56 56 56 55 55 56 56 55 55 55 55 55 56 56 56 56 56 57 57 59 60 59 60 62 62 63 62 61 62 63 63 63 63 63 63 64 65 67 70 69 70 73 72 71 74 74 72 71 71 73 75 75 74 74 76 77 77 77 77 78 79
68 67 67 67 67 67 66 65 64 63 63 63 64 63 62 62 62 61 60 59 58 57 57 57 57 56 56 55 56 57 55 55 57 56 56 56 56 57 58 58 57 57 57 58 59 59 61 62 61 61 63 63 63 63 63 64 65 65 65 66 65 64 65 66 68 70 70 72 74 72 71 74 74 73 72 73 74 76 78 78 78 79 80 81 81 83 84 85
68 67 67 67 66 66 65 64 63 63 63 63 63 63 62 61 61 60 59 58 57 56 56 57 56 56 56 56 57 58 57 57 58 57 56 57 58 58 59 59 59 59 58 59 60 61 62 64 63 63 65 64 63 63 63 64 66 66 66 66 66 66 66 66 68 68 69 72 73 72 73 75 74 74 75 76 76 77 79 80 80 80 81 82 83 84 85 86
69 68 67 67 67 66 65 64 63 63 62 62 63 61 60 59 59 59 59 57 57 56 56 57 57 57 56 56 57 58 58 58 59 59 58 59 59 59 60 61 60 60 59 60 61 62 63 64 64 64 65 65 63 63 64 65 66 67 67 67 66 66 67 68 68 68 69 72 73 74 77 78 76 77 80 80 79 79 80 81 82 83 84 84 85 85 86 87
69 69 68 68 67 66 66 65 63 63 62 62 61 59 58 57 57 57 59 58 57 56 56 57 57 57 57 57 58 58 59 59 59 59 59 59 60 60 61 61 61 61 61 60 61 62 62 63 63 63 66 66 63 63 66 67 68 69 69 68 66 67 68 69 70 70 71 73 75 77 80 81 80 81 82 83 82 82 82 83 84 85 86 87 87 88 88 88
67 67 67 67 66 65 65 64 63 62 62 61 59 57 56 56 55 56 58 58 56 56 56 57 57 57 58 58 58 59 59 59 59 60 60 60 60 61 61 61 60 60 61 61 62 61 61 63 63 64 67 68 65 66 68 69 72 73 71 68 67 68 70 72 73 74 74 76 79 81 82 82 83 83 83 84 85 85 84 85 86 87 88 89 89 89 89 89
Wind_Direction
260 261 263 264 265 266 266 266 266 265 264 263 262 262 262 262 263 264 266 267 268 269 270 272 274 276 278 280 283 285 286 287 286 286 288 288 287 287 287 287 287 288 288 288 288 287 286 287 287 287 288 288 288 288 289 291 293 296 297 298 299 294 291 294 295 296 300 305 307 306 301 297 294 294 296 298 297 295 294 291 289 290 289 288 291 291 291 290
258 259 260 260 261 262 262 262 262 262 262 262 262 263 263 264 265 267 268 270 271 272 273 274 276 278 280 282 284 286 287 287 285 285 285 285 285 285 284 284 285 286 286 285 285 284 284 285 285 285 285 285 286 286 289 291 292 294 295 297 297 291 291 294 293 295 300 303 304 304 302 298 295 295 299 299 295 295 296 289 288 292 291 292 294 294 294 293
255 256 256 257 258 258 259 259 260 260 261 261 263 264 265 266 267 268 270 272 273 274 275 276 278 280 281 283 284 286 287 287 285 284 284 284 284 283 283 284 285 285 284 283 283 282 282 282 281 281 281 281 283 285 288 290 290 293 295 296 293 289 291 291 291 293 297 300 301 301 300 299 296 295 299 299 299 299 295 286 287 293 294 295 296 297 297 296
253 254 255 255 256 257 258 259 260 260 261 262 263 264 265 266 267 269 270 272 273 274 275 277 278 280 281 283 284 285 286 285 284 283 284 283 283 283 284 285 284 284 283 282 281 281 280 280 279 279 278 279 281 285 288 288 288 291 294 293 291 290 289 289 290 292 294 296 297 297 297 297 295 294 296 298 307 310 296 288 289 293 296 298 299 300 299 296
253 254 255 256 257 258 259 259 261 262 263 264 264 265 266 266 267 268 270 271 272 274 275 276 277 279 280 281 282 283 284 282 281 281 282 282 282 283 284 283 283 282 282 281 280 279 279 278 278 277 278 280 283 285 288 288 289 291 292 291 290 289 290 290 290 291 292 292 293 293 292 293 293 292 292 296 311 313 295 289 288 290 295 300 302 302 299 296
254 255 256 257 258 259 260 261 262 263 264 265 265 266 267 267 268 268 269 270 271 273 274 275 276 277 278 280 281 281 282 280 278 279 280 281 282 282 282 281 280 280 280 280 279 279 279 278 278 278 279 282 284 286 288 289 289 291 292 289 287 288 291 291 290 291 291 290 291 289 288 290 290 288 288 296 307 303 289 286 287 291 295 299 302 300 298 297
254 255 256 258 259 260 261 261 262 263 263 264 265 266 267 267 268 269 269 270 271 272 273 274 275 276 277 278 278 279 280 277 276 278 278 278 279 279 279 279 279 279 280 280 280 280 279 279 279 279 281 283 285 287 288 289 288 290 291 288 287 288 290 290 290 292 291 289 288 286 287 288 287 287 289 296 301 293 283 281 286 294 297 298 300 299 299 300
254 255 257 258 259 260 261 261 261 262 262 263 264 264 265 266 267 268 269 270 271 271 273 273 274 275 275 276 276 277 277 273 275 277 276 276 275 275 276 278 280 280 281 282 282 282 281 281 281 282 283 284 286 288 289 289 288 290 290 287 288 289 289 290 292 294 292 291 288 285 285 285 286 289 296 298 292 287 283 283 286 291 295 297 299 299 301 302
255 255 256 258 259 260 261 261 262 262 263 263 264 264 264 265 266 267 267 269 270 270 271 272 273 273 274 274 274 276 273 270 273 276 275 274 273 274 275 277 279 281 282 283 283 283 283 283 283 284 284 286 288 288 288 288 288 290 288 286 288 289 289 291 293 295 294 291 289 288 287 287 287 290 299 296 285 282 283 286 289 289 292 295 296 298 300 301
255 255 256 257 258 260 261 262 263 264 264 264 264 265 265 265 265 266 267 268 268 269 270 270 271 271 272 271 272 273 268 268 272 274 274 274 274 275 276 278 280 281 282 283 283 283 283 283 283 284 284 286 287 286 287 287 289 289 288 287 287 288 288 290 293 294 293 291 293 292 290 290 288 290 296 290 282 281 283 285 288 289 291 293 295 297 297 298
256 256 257 258 259 261 262 263 264 265 265 266 266 266 266 266 266 267 267 268 268 269 269 269 269 269 269 269 271 269 265 268 272 273 274 275 275 277 278 280 281 282 282 282 282 282 282 282 283 283 284 285 285 285 286 287 288 288 288 287 287 287 288 291 293 293 293 294 295 293 291 290 288 292 294 286 283 284 284 284 287 289 290 290 292 292 292 293
256 257 258 259 260 261 262 264 264 265 266 267 267 268 268 268 268 268 269 269 269 269 269 269 268 268 268 268 269 266 264 268 272 274 276 277 278 280 281 281 282 282 282 281 281 282 282 282 283 283 284 285 284 285 285 285 287 288 288 286 286 287 287 290 291 293 296 296 296 292 289 288 287 292 293 286 286 287 286 287 288 289 289 288 287 286 286 286
257 258 259 260 261 262 262 263 264 265 266 267 268 268 269 270 270 270 270 270 269 269 269 269 269 269 268 267 267 267 268 270 272 274 275 277 279 280 281 281 281 281 282 282 283 283 283 284 284 284 285 285 285 286 286 285 286 287 287 286 287 286 285 287 290 295 297 294 294 291 288 288 288 292 292 289 288 288 287 288 289 289 288 286 284 282 282 281
258 259 259 260 261 261 262 263 263 264 265 266 267 267 268 269 269 270 270 270 270 270 270 270 271 271 270 270 269 269 271 272 272 273 275 276 278 278 279 280 280 281 282 283 283 284 284 285 285 285 285 285 286 286 287 286 285 286 286 286 287 284 284 286 288 293 294 292 291 288 287 288 289 292 290 289 289 289 288 289 289 288 286 284 283 282 280 278
259 259 260 260 261 262 262 263 263 264 265 265 266 267 267 268 268 269 269 270 270 270 271 272 272 273 272 272 272 272 272 273 273 274 275 276 277 277 278 279 280 281 282 282 283 283 284 284 284 285 285 285 286 287 288 287 286 287 285 284 285 285 287 288 288 290 290 289 288 285 286 288 292 293 289 289 290 289 287 287 288 287 285 283 282 280 278 277
260 260 261 261 261 262 263 263 264 265 265 266 266 267 268 268 268 269 269 270 270 271 272 272 273 274 274 274 274 274 274 274 274 275 275 276 277 277 278 279 280 281 281 282 282 282 283 282 282 283 283 284 286 287 287 285 286 287 284 283 285 287 289 289 290 292 290 286 284 283 285 289 294 293 290 290 291 289 287 287 288 286 284 284 282 279 277 275
261 261 262 262 263 263 263 264 264 265 266 266 267 267 267 268 269 269 270 270 271 272 272 273 273 274 275 275 275 274 274 274 274 274 275 276 277 278 278 279 280 280 281 281 281 281 281 281 282 281 281 283 286 287 285 284 286 286 284 285 287 287 287 287 289 292 288 283 281 283 285 288 290 290 289 288 286 285 286 289 290 288 287 284 281 280 278 274
262 263 263 264 264 265 265 265 265 265 265 266 266 266 266 267 268 268 269 270 271 271 272 272 273 274 275 275 274 273 272 272 273 274 275 276 277 278 279 279 279 279 279 279 279 280 280 280 280 280 281 284 285 283 281 283 285 285 285 287 287 287 288 289 291 291 286 281 281 283 285 286 286 287 290 289 285 283 285 288 289 289 286 282 280 280 277 273
264 264 265 265 266 266 267 267 266 266 266 266 266 266 267 267 267 267 268 269 270 270 271 272 272 273 274 275 274 273 272 272 273 273 275 276 277 278 278 278 278 278 278 279 279 279 279 279 278 278 282 284 281 278 279 281 283 283 284 285 286 287 287 288 290 290 286 283 282 283 283 284 285 287 289 289 288 287 287 289 289 287 283 281 280 277 274 272
265 265 266 266 267 267 268 268 268 268 268 268 267 267 268 268 268 268 268 269 269 270 271 272 272 272 274 275 274 273 273 272 272 273 275 276 276 277 277 277 278 277 277 278 278 278 277 277 277 278 280 280 278 278 279 279 280 281 282 282 283 285 286 287 287 285 284 285 285 284 282 282 283 286 287 288 288 288 288 287 286 284 281 279 278 274 273 273
265 266 266 267 267 268 268 268 269 269 269 270 269 269 269 269 269 269 269 268 269 271 272 273 274 274 274 275 275 275 275 274 275 275 275 275 276 276 276 277 277 276 276 275 276 276 276 276 277 278 277 276 276 278 279 278 278 279 280 281 282 283 285 285 284 283 284 285 286 286 284 283 283 284 285 285 286 288 288 285 282 280 278 278 277 275 274 276
265 266 266 267 267 268 268 269 269 270 270 270 270 270 270 269 269 269 269 268 268 270 272 273 274 275 275 274 275 276 276 277 278 277 276 275 275 275 276 276 275 275 275 273 273 275 276 275 276 277 277 276 275 276 277 277 278 278 279 280 281 282 283 283 283 284 284 285 286 286 286 286 286 285 284 283 284 287 288 285 282 278 276 275 275 274 274 275
264 265 266 267 267 268 268 269 269 270 270 271 271 271 271 271 270 270 270 270 268 267 270 272 272 273 273 274 274 275 276 278 279 278 277 275 274 273 274 274 273 273 274 273 272 273 274 275 275 276 276 276 275 275 275 276 276 277 278 279 280 281 282 283 284 285 285 285 285 285 286 287 288 288 288 288 290 290 287 285 283 281 278 276 275 274 273 273
263 264 265 266 267 267 267 268 268 269 270 270 271 271 271 271 272 272 272 271 269 268 268 270 271 272 272 273 274 275 277 279 279 279 277 275 274 273 273 273 272 272 272 272 271 270 271 273 275 275 274 274 275 275 274 274 275 276 277 278 279 281 282 283 284 285 286 286 285 285 286 287 288 290 291 293 297 298 292 289 286 283 281 279 277 275 274 273
262 263 265 265 266 266 266 266 267 267 268 268 269 269 270 271 272 272 273 273 271 271 271 270 271 272 273 275 276 277 279 280 280 279 277 276 275 274 273 273 272 272 271 270 268 269 269 270 273 274 274 274 273 274 274 274 275 276 276 277 278 280 281 282 283 284 285 286 286 287 287 287 288 292 294 296 301 301 297 295 295 292 290 287 282 278 276 276
263 264 264 265 265 266 266 266 266 266 266 267 267 268 268 269 270 271 273 273 272 273 273 272 271 272 273 275 277 279 281 281 280 280 279 278 277 276 275 274 273 272 272 270 268 269 270 269 270 271 272 273 273 273 273 274 275 275 276 278 278 279 279 280 281 283 283 284 286 288 289 289 291 295 295 297 300 298 296 298 300 301 302 299 286 275 279 284
262 263 264 265 265 265 265 265 265 265 266 266 266 267 267 268 269 270 272 273 272 273 274 274 273 273 274 276 277 279 280 280 280 280 280 279 278 277 276 275 274 272 272 271 271 271 271 269 269 269 270 270 272 272 273 273 274 275 276 277 277 278 278 279 280 281 281 283 284 286 288 290 293 295 294 296 297 295 295 299 301 303 304 301 288 282 289 293
260 261 263 263 263 264 264 264 264 264 265 266 266 266 266 267 268 270 272 272 271 271 272 275 276 277 278 279 278 278 278 279 280 280 280 280 279 278 276 276 274 273 273 273 273 273 272 270 269 269 269 270 271 271 272 272 273 275 276 277 278 279 279 279 280 280 281 283 283 285 288 291 293 294 294 294 295 293 295 299 300 301 299 297 297 294 296 297
259 259 261 262 263 264 265 265 265 265 265 266 267 267 267 268 268 270 270 270 270 270 272 276 278 280 281 280 279 279 279 279 279 280 280 281 281 280 278 277 276 276 275 273 274 275 274 273 272 272 272 272 272 271 271 273 274 275 276 277 279 280 280 280 280 281 282 282 283 285 289 291 291 292 291 290 291 292 294 297 297 297 293 294 297 295 295 296
257 258 261 263 264 265 266 266 266 266 267 268 269 270 270 270 270 270 268 267 269 271 274 277 278 279 280 281 280 280 279 279 278 279 279 279 279 279 279 279 280 279 278 277 277 278 278 278 278 278 277 276 275 274 274 275 275 276 277 278 279 279 279 280 280 281 282 282 283 286 288 288 288 286 286 286 287 289 291 291 292 295 292 291 292 291 291 293
258 260 262 263 263 263 264 264 264 266 268 269 270 271 272 271 270 269 267 268 272 274 275 277 278 278 278 279 281 281 281 280 279 278 277 277 276 277 277 278 278 278 278 279 279 278 279 280 280 279 278 278 278 276 276 276 276 277 277 278 279 280 280 281 281 281 281 282 284 285 285 284 282 280 281 283 284 287 289 287 288 291 289 288 288 288 289 290
259 262 264 264 264 263 262 262 263 263 264 266 268 268 269 270 269 267 268 271 275 275 275 275 276 277 278 279 281 281 281 280 279 278 277 277 276 275 274 274 275 276 276 277 277 277 278 279 280 279 278 278 277 277 277 277 277 277 278 279 280 281 282 282 282 283 284 285 284 282 281 279 277 277 277 278 280 283 284 285 286 286 286 286 287 288 289 290
262 263 264 264 264 264 263 262 261 262 263 264 266 266 267 269 269 269 270 272 274 275 275 274 275 276 277 279 280 280 281 281 281 281 280 280 278 277 276 276 277 277 278 278 278 279 278 279 280 280 279 278 278 279 279 278 278 278 279 280 279 280 280 280 281 283 285 285 282 280 278 276 276 276 275 276 277 277 276 278 281 283 285 287 288 288 289 288
260 261 261 261 262 263 263 263 263 264 265 265 265 265 265 268 270 271 272 273 273 275 275 276 277 278 278 279 280 282 282 281 281 281 281 280 279 279 279 279 279 279 280 280 280 280 280 280 281 280 278 277 277 278 278 278 279 279 279 278 277 278 279 280 282 282 282 280 278 278 278 277 277 278 277 277 277 276 274 275 277 280 283 286 287 287 286 286
254 254 255 257 258 259 261 262 262 262 263 264 265 264 263 267 270 271 271 272 273 275 275 276 277 277 277 278 278 279 278 277 277 277 277 277 278 278 278 279 279 278 278 277 277 277 278 279 281 281 279 278 276 275 275 276 277 277 277 276 277 278 279 279 279 278 278 276 275 276 278 278 279 280 278 277 277 277 276 277 278 279 280 282 284 285 285 285
248 248 249 251 252 253 255 256 257 258 259 260 261 263 266 268 269 270 270 270 271 273 273 273 272 273 274 274 274 275 275 276 276 276 276 276 276 275 276 277 277 277 276 276 276 276 275 276 278 279 279 277 276 275 275 275 275 276 275 275 277 279 279 278 278 277 277 276 275 275 277 278 280 281 279 278 277 277 277 278 279 280 280 280 281 282 283 284
246 245 247 250 252 253 251 251 253 255 255 254 255 261 266 268 269 269 270 270 270 269 268 267 268 269 271 272 274 275 275 275 275 276 276 276 276 276 277 277 277 278 279 279 280 280 279 278 278 278 279 279 279 278 278 278 278 278 278 278 278 278 278 278 279 278 278 278 278 278 278 279 279 280 280 280 279 277 277 278 278 279 280 280 280 280 280 280
256 254 254 256 258 259 257 257 258 261 262 260 258 261 264 266 268 269 269 270 270 268 266 267 269 270 271 273 275 276 276 275 275 276 275 276 276 276 277 277 278 278 280 282 282 282 283 282 281 280 281 282 281 281 281 281 281 282 282 282 280 278 278 278 277 278 278 279 280 281 280 279 280 280 280 280 280 279 278 278 278 279 280 280 281 280 279 279
265 265 264 265 265 265 265 265 267 269 270 269 268 268 269 270 271 270 270 270 270 269 268 269 272 274 274 275 274 274 274 275 276 278 279 279 279 279 278 278 280 281 281 282 283 283 284 284 283 283 282 282 282 282 282 282 282 282 281 281 280 279 279 278 276 277 279 279 279 280 278 278 279 279 278 277 278 279 279 279 280 280 280 279 278 277 276 276
268 268 268 269 269 269 269 269 269 270 271 272 273 274 274 273 272 271 271 271 272 272 272 272 275 277 277 276 275 275 275 275 276 277 279 279 281 281 280 281 282 282 282 283 283 284 284 284 285 284 282 282 284 285 284 282 282 281 280 280 280 279 280 279 277 277 278 277 277 277 275 275 275 275 275 275 275 276 277 279 279 279 278 277 274 272 272 272
266 267 267 268 270 271 271 271 271 271 271 271 271 272 272 272 273 272 270 271 272 273 274 275 276 277 278 278 279 278 278 278 278 278 278 279 280 281 281 282 282 282 283 283 283 283 284 284 284 283 283 283 285 285 283 281 281 281 280 279 279 280 280 278 277 278 277 275 275 275 274 274 273 272 273 272 271 273 276 276 275 275 274 273 272 272 273 273
265 266 267 267 268 270 270 271 272 272 272 272 273 272 271 272 272 271 270 269 269 270 271 273 274 276 277 279 280 279 279 280 280 279 279 280 280 281 281 282 281 281 282 282 281 282 282 281 281 281 282 282 283 281 280 281 281 280 278 279 278 279 279 276 277 280 277 273 273 273 272 273 273 272 270 268 269 272 273 272 271 271 270 270 270 271 273 274
263 264 265 265 267 268 268 269 271 272 274 276 276 274 273 273 272 271 272 271 270 270 269 270 271 272 273 275 276 277 278 279 279 279 280 280 280 280 280 281 280 280 281 280 280 281 280 279 279 280 280 280 281 281 280 281 281 279 279 279 278 278 278 276 278 280 276 273 273 272 270 272 275 273 270 270 272 273 272 270 270 270 269 269 268 269 271 272
262 263 263 264 265 266 268 269 271 273 274 275 274 273 273 273 272 273 273 273 272 272 271 270 270 270 270 271 272 273 274 275 276 277 278 279 279 279 279 279 280 280 280 280 280 280 279 279 279 279 279 280 280 280 280 280 279 277 277 277 277 278 277 275 277 277 274 272 273 272 271 273 275 274 274 275 277 277 275 273 272 271 270 269 269 270 271 271
263 263 264 264 265 266 267 269 270 271 272 272 272 272 272 273 273 274 273 273 272 271 271 270 270 270 270 269 270 270 271 272 273 274 274 275 276 276 277 277 278 278 278 278 278 278 277 276 276 277 277 279 280 280 280 279 276 274 273 273 274 274 273 272 273 272 271 272 270 267 267 269 269 272 276 278 279 278 276 274 274 273 272 271 271 272 272 271
264 264 265 265 266 266 267 268 269 269 271 271 271 271 272 273 273 272 271 270 270 269 269 269 269 269 270 270 270 270 270 270 271 272 273 274 275 275 276 277 277 277 277 277 276 275 274 274 274 275 275 277 278 279 279 278 276 275 274 273 273 273 273 272 272 272 272 272 269 267 268 269 270 273 276 277 277 276 275 274 275 274 273 272 272 272 271 270
265 265 266 266 266 267 267 267 268 269 270 270 270 270 271 271 270 270 269 269 269 269 269 269 269 269 270 270 270 269 270 270 270 272 274 275 275 275 275 276 276 276 276 275 274 274 273 273 273 274 274 275 277 278 278 276 275 275 275 274 274 275 275 275 275 275 275 274 273 274 276 276 276 277 276 276 276 276 275 274 273 272 271 271 270 270 269 269
265 266 267 267 267 268 268 268 269 269 268 268 269 269 269 269 270 270 270 270 270 269 269 269 270 270 270 270 269 269 270 270 271 273 274 275 275 275 275 275 275 276 276 275 274 274 273 273 275 274 274 275 276 276 277 276 274 274 274 275 275 275 276 276 276 276 276 276 277 279 279 278 278 278 277 275 275 275 275 275 274 273 272 272 271 271 271 271
265 266 267 267 267 268 268 268 268 267 267 268 268 269 269 269 269 269 269 269 269 268 268 268 269 269 269 270 270 270 271 271 271 272 273 273 273 274 274 275 275 275 275 275 275 274 274 275 276 275 275 275 275 276 275 274 274 274 274 275 275 277 278 277 275 276 276 277 279 280 279 277 278 278 276 275 274 274 275 275 275 275 274 274 273 273 273 273
265 266 267 267 267 267 268 268 267 267 267 267 268 269 269 268 268 268 268 267 267 267 267 267 268 268 269 269 269 270 271 271 271 272 272 272 273 273 273 274 274 275 275 274 274 275 275 275 276 276 275 275 275 276 275 274 274 274 274 274 277 279 279 277 277 278 278 278 279 280 278 278 278 277 276 275 275 274 274 274 274 275 274 274 274 274 274 274
265 266 266 267 267 267 267 267 267 267 266 267 268 269 267 266 266 266 266 266 266 266 266 266 267 268 267 267 267 268 269 270 270 271 271 271 272 272 272 273 274 274 274 274 274 274 275 276 276 276 276 275 276 276 275 274 274 273 273 277 280 281 279 278 279 279 279 279 280 278 277 278 277 276 276 276 275 274 274 274 274 274 274 273 273 273 273 273
265 265 265 266 266 266 266 267 266 266 266 267 267 266 265 264 264 264 264 265 265 265 266 266 266 266 267 267 267 268 269 269 269 270 270 270 271 271 272 272 273 274 274 275 274 275 276 276 277 277 277 277 277 276 276 276 274 274 277 282 282 281 281 280 280 280 280 281 279 278 277 277 276 276 276 275 275 275 275 274 274 274 273 273 273 273 273 273
Height
5869 5869 5869 5869 5870 5870 5870 5870 5870 5871 5871 5871 5871 5871 5871 5872 5872 5872 5872 5872 5872 5872 5872 5872 5872 5872 5872 5872 5872 5871 5871 5871 5870 5870 5870 5870 5870 5869 5869 5869 5868 5868 5868 5867 5867 5866 5865 5865 5865 5865 5864 5864 5863 5863 5862 5862 5861 5861 5860 5860 5859 5858 5856 5856 5855 5855 5854 5853 5853 5853 5852 5851 5850 5849 5849 5848 5847 5845 5845 5842 5841 5843 5842 5841 5841 5841 5841 5840
5867 5867 5867 5868 5868 5868 5868 5869 5869 5869 5869 5869 5869 5869 5870 5870 5870 5870 5870 5870 5870 5870 5871 5871 5871 5871 5870 5870 5870 5870 5869 5869 5868 5868 5868 5868 5868 5867 5867 5866 5866 5866 5866 5865 5864 5864 5863 5863 5862 5862 5862 5862 5861 5861 5860 5860 5859 5859 5858 5858 5857 5855 5854 5854 5853 5852 5852 5852 5851 5850 5850 5849 5848 5847 5847 5847 5845 5844 5844 5840 5837 5840 5840 5838 5839 5839 5839 5838
5865 5865 5865 5866 5866 5866 5867 5867 5867 5867 5867 5868 5868 5868 5868 5868 5868 5868 5868 5868 5868 5868 5869 5869 5869 5869 5869 5869 5868 5868 5867 5866 5866 5866 5866 5866 5865 5865 5864 5864 5864 5864 5863 5862 5862 5861 5861 5860 5860 5860 5859 5859 5859 5858 5858 5858 5857 5857 5856 5855 5855 5853 5852 5851 5850 5850 5849 5849 5849 5848 5847 5847 5846 5846 5845 5845 5843 5843 5842 5838 5836 5837 5838 5836 5836 5836 5836 5836
5862 5863 5863 5863 5864 5864 5865 5865 5865 5865 5865 5866 5866 5866 5866 5866 5866 5866 5866 5866 5866 5866 5866 5867 5867 5867 5867 5867 5866 5866 5865 5863 5863 5863 5864 5863 5863 5862 5862 5862 5861 5861 5860 5860 5859 5859 5858 5858 5857 5857 5857 5857 5857 5856 5855 5855 5854 5854 5854 5852 5852 5850 5850 5849 5848 5848 5847 5847 5846 5845 5844 5844 5844 5844 5843 5842 5842 5842 5839 5836 5835 5836 5835 5834 5833 5833 5833 5833
5860 5860 5861 5861 5861 5862 5862 5862 5863 5863 5863 5864 5864 5864 5864 5864 5864 5864 5864 5864 5864 5864 5864 5864 5864 5864 5864 5864 5864 5864 5862 5860 5860 5860 5861 5861 5860 5860 5860 5859 5858 5858 5857 5857 5856 5856 5856 5855 5855 5855 5855 5854 5854 5854 5853 5852 5851 5851 5852 5850 5849 5847 5847 5847 5845 5845 5845 5844 5844 5842 5841 5841 5841 5842 5841 5840 5841 5841 5837 5833 5832 5834 5834 5833 5831 5831 5830 5830
5857 5858 5858 5859 5859 5859 5860 5860 5860 5861 5861 5861 5861 5861 5861 5861 5861 5861 5861 5861 5861 5861 5861 5861 5861 5862 5862 5862 5861 5861 5860 5857 5856 5858 5858 5857 5857 5857 5856 5856 5856 5855 5854 5854 5854 5854 5853 5853 5853 5852 5852 5852 5851 5851 5850 5849 5848 5848 5849 5848 5846 5845 5844 5844 5842 5843 5842 5840 5840 5839 5838 5838 5838 5838 5839 5838 5839 5839 5835 5830 5829 5831 5832 5832 5831 5829 5828 5828
5855 5855 5855 5856 5856 5857 5857 5857 5858 5858 5858 5858 5858 5858 5858 5858 5858 5858 5858 5858 5858 5858 5858 5858 5858 5859 5858 5859 5858 5858 5857 5852 5852 5855 5855 5854 5854 5854 5853 5853 5853 5852 5852 5851 5851 5851 5850 5850 5850 5849 5849 5849 5849 5848 5847 5846 5845 5845 5846 5845 5843 5843 5842 5841 5839 5839 5839 5837 5837 5835 5834 5835 5834 5834 5837 5836 5836 5836 5832 5828 5827 5829 5830 5830 5829 5828 5827 5826
5851 5852 5852 5853 5853 5853 5854 5854 5854 5854 5854 5855 5855 5855 5855 5855 5855 5855 5854 5854 5855 5854 5855 5854 5855 5855 5855 5855 5854 5855 5854 5848 5848 5851 5852 5851 5851 5851 5850 5850 5850 5849 5849 5848 5848 5848 5847 5847 5847 5846 5846 5846 5846 5845 5844 5842 5842 5842 5843 5841 5840 5840 5839 5838 5837 5836 5835 5834 5832 5831 5831 5832 5831 5830 5834 5836 5833 5831 5829 5826 5827 5828 5827 5827 5827 5826 5825 5824
5848 5848 5849 5849 5850 5850 5850 5850 5850 5851 5851 5851 5851 5851 5851 5851 5851 5851 5851 5851 5851 5850 5851 5850 5851 5851 5851 5851 5851 5852 5850 5845 5846 5848 5848 5848 5848 5848 5848 5847 5847 5846 5846 5845 5844 5844 5844 5844 5843 5843 5842 5843 5843 5842 5840 5839 5838 5839 5839 5838 5838 5837 5836 5835 5834 5833 5831 5830 5828 5826 5828 5829 5828 5827 5831 5833 5829 5827 5826 5825 5824 5824 5825 5824 5824 5823 5822 5822
5844 5845 5845 5846 5846 5846 5846 5846 5847 5847 5847 5847 5847 5847 5847 5847 5847 5846 5846 5847 5846 5846 5847 5847 5847 5847 5847 5848 5848 5850 5846 5842 5844 5844 5844 5845 5845 5845 5845 5844 5844 5843 5843 5842 5841 5841 5840 5840 5839 5839 5838 5839 5839 5838 5837 5835 5835 5835 5834 5834 5835 5834 5833 5832 5832 5830 5827 5826 5826 5823 5824 5827 5825 5825 5829 5828 5824 5823 5823 5823 5822 5820 5821 5821 5820 5820 5820 5819
5840 5841 5841 5842 5842 5842 5843 5843 5843 5843 5843 5843 5843 5843 5843 5843 5843 5843 5843 5843 5843 5843 5843 5843 5843 5843 5844 5845 5846 5846 5843 5840 5841 5841 5841 5842 5842 5842 5842 5841 5841 5840 5839 5839 5838 5837 5837 5836 5836 5835 5834 5835 5835 5834 5833 5832 5831 5831 5830 5830 5831 5830 5830 5830 5829 5827 5824 5823 5824 5819 5817 5823 5823 5822 5825 5823 5819 5819 5819 5820 5820 5818 5818 5818 5817 5817 5816 5816
5836 5836 5837 5838 5838 5839 5839 5839 5839 5839 5839 5839 5840 5840 5840 5840 5839 5839 5839 5839 5839 5839 5839 5839 5840 5840 5841 5842 5843 5842 5840 5839 5838 5838 5837 5837 5838 5839 5838 5838 5837 5836 5836 5835 5834 5834 5833 5832 5832 5831 5831 5831 5830 5830 5829 5829 5827 5827 5825 5824 5827 5826 5825 5828 5825 5824 5822 5819 5820 5815 5810 5816 5821 5820 5820 5819 5817 5816 5815 5816 5817 5815 5815 5815 5814 5813 5812 5812
5832 5832 5833 5833 5834 5834 5835 5835 5835 5835 5836 5836 5836 5836 5836 5836 5836 5836 5836 5836 5836 5836 5836 5836 5836 5837 5837 5840 5841 5838 5837 5837 5836 5835 5834 5834 5834 5834 5834 5833 5833 5832 5832 5831 5831 5830 5829 5828 5828 5827 5827 5826 5826 5826 5825 5824 5824 5824 5821 5818 5822 5821 5821 5824 5823 5821 5819 5815 5815 5810 5804 5807 5816 5819 5816 5813 5814 5813 5811 5813 5813 5812 5811 5810 5809 5808 5808 5807
5828 5828 5828 5829 5829 5830 5830 5831 5831 5831 5832 5832 5832 5833 5833 5833 5833 5832 5832 5832 5832 5832 5832 5832 5832 5832 5833 5837 5838 5836 5834 5834 5832 5832 5831 5830 5831 5830 5830 5829 5829 5828 5828 5827 5826 5826 5825 5824 5823 5823 5824 5823 5822 5822 5820 5819 5820 5821 5817 5814 5816 5815 5816 5820 5820 5820 5816 5811 5811 5806 5800 5801 5809 5816 5814 5809 5809 5809 5807 5808 5809 5808 5807 5806 5804 5803 5803 5802
5824 5824 5824 5825 5825 5825 5826 5826 5827 5827 5827 5828 5828 5829 5829 5829 5829 5828 5828 5828 5828 5828 5827 5828 5828 5828 5829 5832 5834 5833 5831 5830 5829 5828 5827 5827 5827 5827 5826 5825 5825 5824 5824 5823 5822 5822 5821 5820 5819 5818 5819 5819 5819 5818 5817 5814 5814 5817 5813 5810 5811 5809 5810 5813 5815 5817 5814 5808 5805 5802 5798 5797 5803 5810 5811 5806 5805 5804 5802 5803 5805 5804 5802 5801 5800 5799 5798 5798
5819 5820 5820 5820 5821 5821 5821 5822 5822 5823 5823 5824 5824 5824 5824 5824 5824 5824 5824 5824 5823 5823 5823 5823 5824 5823 5823 5827 5830 5829 5828 5826 5825 5825 5824 5823 5823 5823 5822 5821 5821 5820 5819 5819 5818 5817 5817 5815 5815 5814 5814 5816 5816 5815 5813 5809 5809 5812 5808 5805 5807 5806 5806 5806 5808 5811 5810 5804 5799 5797 5796 5795 5798 5801 5805 5805 5801 5798 5797 5798 5800 5799 5797 5797 5796 5794 5794 5793
5815 5815 5816 5816 5816 5817 5817 5817 5818 5818 5819 5819 5819 5820 5820 5819 5819 5819 5819 5819 5819 5819 5819 5819 5819 5818 5818 5822 5824 5824 5823 5821 5821 5820 5820 5820 5820 5819 5819 5818 5817 5816 5815 5815 5814 5813 5812 5811 5810 5809 5809 5812 5812 5810 5807 5804 5805 5806 5802 5801 5802 5801 5800 5801 5803 5806 5805 5799 5794 5793 5793 5794 5794 5793 5798 5802 5798 5794 5793 5794 5794 5793 5792 5792 5791 5789 5788 5788
5811 5811 5811 5812 5812 5813 5813 5813 5813 5813 5813 5814 5814 5814 5815 5814 5814 5815 5814 5815 5815 5815 5814 5814 5815 5814 5813 5817 5818 5818 5817 5816 5816 5816 5816 5816 5816 5815 5814 5814 5813 5812 5811 5810 5809 5809 5808 5806 5806 5804 5805 5809 5808 5805 5801 5800 5801 5799 5797 5796 5795 5795 5795 5795 5798 5800 5797 5794 5792 5790 5789 5789 5789 5788 5790 5794 5793 5790 5789 5790 5789 5788 5787 5786 5786 5785 5783 5781
5806 5806 5807 5807 5808 5808 5808 5808 5808 5808 5808 5809 5809 5809 5809 5809 5809 5809 5809 5810 5810 5810 5809 5809 5811 5809 5809 5811 5812 5812 5812 5812 5811 5812 5812 5812 5811 5811 5810 5809 5809 5808 5807 5806 5805 5805 5804 5801 5800 5799 5803 5805 5802 5799 5797 5797 5796 5794 5793 5792 5789 5789 5790 5791 5793 5793 5789 5787 5788 5788 5786 5785 5783 5784 5785 5785 5786 5786 5785 5786 5784 5783 5781 5780 5781 5780 5777 5776
5801 5802 5802 5803 5803 5803 5803 5803 5803 5803 5803 5803 5803 5803 5803 5803 5803 5803 5804 5805 5805 5805 5804 5804 5805 5805 5805 5805 5805 5806 5806 5807 5807 5808 5809 5808 5807 5806 5805 5805 5804 5803 5803 5801 5800 5801 5800 5795 5793 5796 5801 5800 5794 5793 5794 5794 5792 5789 5788 5787 5785 5784 5784 5786 5787 5786 5784 5781 5782 5783 5782 5781 5780 5780 5780 5779 5780 5781 5782 5781 5779 5777 5775 5775 5776 5775 5773 5772
5797 5797 5797 5798 5798 5798 5798 5798 5798 5798 5798 5798 5798 5798 5797 5798 5797 5796 5798 5799 5799 5800 5800 5799 5799 5800 5801 5799 5799 5799 5799 5800 5802 5804 5804 5803 5802 5801 5800 5800 5799 5798 5798 5797 5795 5795 5795 5791 5789 5793 5796 5793 5790 5789 5788 5788 5788 5785 5783 5782 5781 5779 5779 5780 5779 5779 5779 5776 5776 5776 5774 5775 5775 5776 5776 5774 5774 5776 5776 5776 5776 5773 5770 5770 5770 5770 5769 5768
5791 5792 5792 5793 5793 5793 5793 5793 5792 5793 5793 5792 5792 5792 5792 5792 5792 5790 5791 5792 5795 5795 5794 5794 5794 5793 5794 5793 5794 5794 5793 5794 5796 5798 5798 5798 5798 5795 5795 5795 5793 5793 5792 5791 5791 5790 5788 5785 5785 5788 5789 5787 5786 5785 5783 5782 5782 5781 5779 5777 5776 5775 5774 5773 5772 5772 5773 5771 5770 5768 5766 5767 5767 5768 5768 5768 5771 5772 5770 5770 5771 5769 5766 5765 5766 5765 5765 5764
5786 5786 5787 5787 5788 5788 5788 5787 5787 5787 5788 5787 5787 5787 5786 5786 5786 5785 5785 5785 5788 5791 5789 5788 5787 5787 5786 5786 5788 5788 5788 5789 5789 5791 5793 5792 5791 5791 5790 5789 5788 5787 5785 5786 5787 5785 5782 5780 5781 5785 5784 5781 5781 5780 5778 5778 5777 5776 5775 5773 5771 5771 5770 5768 5767 5766 5766 5767 5765 5762 5761 5760 5759 5759 5758 5758 5763 5766 5764 5764 5764 5763 5762 5761 5761 5761 5760 5760
5780 5781 5781 5782 5783 5782 5782 5782 5782 5782 5782 5782 5782 5781 5781 5780 5780 5780 5780 5778 5780 5784 5785 5783 5780 5780 5780 5780 5782 5782 5782 5784 5783 5785 5786 5785 5785 5785 5784 5783 5783 5781 5780 5781 5781 5779 5778 5775 5776 5779 5778 5776 5775 5774 5773 5772 5772 5772 5770 5769 5768 5767 5766 5764 5763 5761 5760 5760 5759 5757 5756 5755 5754 5752 5751 5751 5753 5754 5756 5757 5756 5756 5757 5757 5757 5756 5756 5756
5775 5776 5776 5777 5777 5777 5777 5777 5776 5776 5776 5776 5776 5776 5775 5775 5775 5775 5774 5773 5772 5775 5778 5778 5776 5774 5774 5774 5775 5776 5776 5778 5778 5778 5779 5778 5778 5779 5778 5777 5777 5775 5775 5776 5775 5773 5773 5772 5772 5772 5771 5771 5769 5768 5767 5766 5767 5767 5765 5766 5765 5764 5763 5762 5760 5758 5756 5754 5752 5751 5751 5751 5751 5750 5747 5747 5747 5745 5746 5747 5747 5748 5750 5751 5752 5751 5751 5752
5770 5770 5771 5771 5770 5771 5771 5771 5771 5770 5770 5770 5770 5770 5770 5770 5770 5769 5769 5767 5767 5767 5769 5771 5771 5770 5770 5770 5770 5771 5771 5771 5772 5772 5772 5772 5772 5772 5771 5771 5771 5770 5769 5769 5768 5768 5768 5768 5768 5767 5765 5764 5764 5764 5762 5761 5761 5761 5761 5761 5761 5760 5759 5758 5757 5754 5753 5751 5748 5747 5745 5745 5748 5747 5744 5743 5742 5740 5740 5739 5739 5741 5743 5744 5745 5746 5747 5747
5764 5765 5765 5765 5765 5765 5765 5765 5765 5764 5764 5764 5764 5765 5765 5764 5764 5764 5764 5762 5761 5761 5760 5762 5764 5764 5766 5766 5766 5767 5765 5765 5766 5766 5766 5766 5766 5766 5765 5765 5765 5764 5763 5763 5762 5763 5763 5763 5762 5762 5760 5759 5759 5758 5757 5755 5754 5755 5756 5755 5755 5754 5754 5753 5751 5749 5748 5747 5746 5745 5742 5742 5744 5744 5741 5740 5738 5736 5736 5735 5735 5737 5737 5738 5739 5739 5741 5743
5758 5759 5759 5759 5760 5760 5759 5760 5759 5759 5758 5758 5759 5759 5759 5759 5759 5760 5759 5756 5756 5755 5754 5755 5757 5758 5760 5760 5761 5761 5760 5761 5760 5759 5760 5760 5759 5760 5759 5759 5759 5758 5758 5757 5756 5757 5758 5757 5757 5756 5755 5754 5754 5753 5751 5750 5749 5750 5750 5749 5749 5749 5748 5747 5745 5744 5743 5742 5742 5741 5740 5740 5741 5740 5736 5734 5732 5731 5731 5731 5732 5734 5733 5733 5734 5732 5732 5735
5752 5753 5754 5754 5755 5755 5755 5754 5754 5754 5753 5753 5753 5753 5754 5755 5755 5756 5754 5751 5749 5749 5750 5752 5753 5753 5753 5753 5754 5755 5754 5755 5755 5754 5754 5754 5754 5753 5753 5752 5752 5752 5752 5752 5752 5752 5752 5752 5751 5751 5750 5750 5750 5748 5746 5746 5745 5745 5745 5745 5744 5743 5742 5741 5739 5738 5738 5737 5737 5737 5736 5736 5737 5736 5733 5729 5727 5727 5727 5727 5728 5731 5731 5730 5729 5728 5726 5728
5746 5747 5748 5749 5749 5749 5749 5749 5748 5748 5748 5748 5748 5748 5749 5750 5751 5751 5747 5744 5743 5744 5747 5748 5748 5749 5748 5747 5747 5748 5748 5749 5749 5749 5749 5749 5749 5748 5748 5747 5746 5746 5746 5746 5747 5747 5747 5747 5746 5746 5746 5745 5744 5743 5743 5742 5741 5741 5741 5740 5738 5737 5736 5735 5734 5734 5732 5731 5733 5733 5732 5732 5732 5731 5729 5725 5724 5725 5724 5723 5725 5726 5726 5725 5725 5724 5722 5722
5740 5741 5742 5742 5743 5744 5744 5743 5743 5743 5743 5744 5743 5744 5744 5744 5745 5743 5739 5739 5740 5741 5744 5743 5742 5743 5743 5742 5741 5741 5742 5742 5742 5743 5743 5743 5744 5744 5744 5743 5742 5742 5741 5741 5742 5741 5742 5742 5742 5741 5741 5740 5739 5738 5738 5738 5736 5736 5735 5734 5732 5731 5730 5728 5728 5728 5727 5727 5730 5729 5727 5727 5727 5726 5726 5722 5719 5723 5722 5718 5721 5721 5720 5720 5719 5718 5717 5717
5734 5735 5735 5736 5737 5738 5737 5737 5737 5738 5738 5738 5738 5738 5739 5738 5737 5735 5734 5737 5737 5736 5739 5738 5736 5737 5737 5737 5736 5735 5735 5734 5734 5735 5736 5737 5738 5739 5739 5738 5737 5737 5736 5736 5735 5735 5737 5737 5736 5736 5736 5736 5733 5731 5732 5732 5731 5730 5729 5729 5726 5726 5724 5721 5721 5720 5721 5723 5724 5724 5722 5720 5720 5722 5723 5719 5717 5722 5720 5714 5715 5714 5712 5713 5713 5712 5711 5710
5728 5729 5730 5730 5731 5731 5731 5731 5731 5732 5732 5732 5732 5732 5733 5732 5729 5728 5731 5735 5733 5731 5733 5732 5730 5731 5731 5730 5730 5729 5728 5727 5727 5728 5728 5729 5730 5731 5732 5731 5731 5730 5729 5730 5729 5729 5730 5731 5731 5729 5729 5730 5727 5725 5725 5725 5725 5724 5724 5723 5720 5720 5717 5714 5715 5715 5716 5716 5714 5715 5715 5714 5714 5715 5717 5715 5713 5718 5718 5712 5710 5707 5706 5706 5706 5705 5704 5702
5721 5722 5723 5724 5725 5724 5724 5724 5724 5726 5725 5725 5725 5725 5725 5725 5724 5724 5727 5729 5727 5725 5726 5725 5725 5725 5725 5724 5724 5723 5723 5721 5722 5723 5722 5722 5723 5724 5725 5724 5724 5723 5721 5722 5722 5721 5721 5722 5725 5722 5722 5724 5723 5720 5718 5717 5717 5717 5718 5716 5713 5714 5711 5707 5708 5708 5708 5707 5704 5705 5707 5707 5709 5710 5710 5708 5706 5710 5710 5707 5704 5702 5701 5699 5698 5697 5696 5694
5715 5716 5717 5717 5717 5717 5718 5717 5718 5719 5719 5719 5718 5717 5718 5720 5720 5720 5721 5721 5719 5718 5719 5719 5720 5720 5719 5719 5719 5719 5718 5716 5717 5718 5717 5717 5718 5718 5719 5718 5717 5717 5715 5713 5713 5713 5712 5714 5716 5715 5713 5716 5717 5715 5713 5712 5710 5710 5712 5710 5707 5709 5707 5702 5700 5700 5699 5696 5696 5699 5699 5700 5704 5703 5700 5700 5700 5701 5700 5698 5697 5696 5695 5693 5690 5689 5687 5686
5709 5710 5711 5711 5711 5711 5711 5711 5712 5712 5712 5713 5711 5711 5714 5716 5716 5714 5714 5714 5713 5712 5712 5712 5713 5714 5713 5713 5714 5713 5712 5710 5710 5711 5711 5712 5712 5713 5715 5713 5712 5711 5709 5706 5704 5705 5705 5707 5710 5710 5706 5708 5710 5709 5708 5707 5704 5703 5704 5704 5703 5703 5701 5695 5691 5692 5691 5685 5687 5694 5693 5695 5699 5695 5690 5692 5694 5693 5692 5690 5689 5687 5686 5686 5685 5682 5679 5678
5701 5702 5704 5705 5705 5703 5704 5705 5705 5705 5705 5705 5704 5706 5710 5710 5709 5708 5708 5708 5707 5706 5706 5705 5706 5708 5707 5707 5707 5706 5705 5705 5704 5704 5705 5705 5704 5707 5709 5707 5707 5706 5703 5700 5698 5697 5697 5699 5705 5706 5700 5699 5703 5702 5700 5700 5699 5696 5696 5698 5698 5695 5693 5690 5684 5683 5683 5676 5677 5686 5688 5689 5692 5688 5684 5684 5684 5685 5684 5682 5682 5679 5677 5677 5677 5675 5672 5670
5694 5695 5698 5700 5698 5696 5697 5698 5697 5698 5698 5698 5699 5702 5704 5705 5705 5703 5703 5703 5702 5700 5699 5699 5700 5701 5701 5702 5702 5700 5698 5698 5698 5697 5698 5698 5697 5700 5702 5700 5700 5700 5697 5695 5692 5688 5688 5689 5695 5701 5697 5692 5694 5695 5693 5692 5692 5690 5688 5689 5690 5686 5685 5685 5678 5674 5675 5670 5669 5675 5678 5681 5684 5684 5681 5675 5673 5676 5675 5673 5673 5672 5669 5668 5667 5665 5663 5661
5686 5687 5691 5693 5692 5690 5690 5690 5691 5691 5689 5690 5694 5696 5697 5699 5699 5698 5698 5697 5695 5694 5694 5694 5693 5693 5694 5696 5697 5694 5692 5693 5692 5690 5690 5690 5690 5691 5693 5692 5692 5692 5690 5688 5684 5681 5680 5678 5682 5691 5691 5685 5684 5686 5686 5685 5683 5683 5680 5679 5679 5677 5676 5676 5672 5669 5667 5663 5662 5664 5665 5670 5674 5676 5675 5669 5665 5666 5664 5662 5662 5661 5659 5658 5657 5655 5653 5651
5677 5678 5683 5686 5684 5683 5683 5682 5683 5684 5683 5684 5687 5687 5689 5690 5691 5691 5691 5690 5688 5686 5687 5687 5686 5685 5686 5688 5689 5688 5686 5686 5687 5684 5682 5683 5683 5682 5683 5685 5684 5683 5682 5680 5677 5675 5673 5670 5670 5676 5680 5678 5677 5676 5676 5676 5675 5673 5672 5671 5670 5669 5667 5665 5663 5665 5663 5655 5654 5654 5653 5659 5666 5667 5667 5665 5659 5656 5655 5654 5653 5652 5650 5648 5646 5646 5645 5643
5670 5670 5676 5679 5675 5674 5675 5672 5674 5677 5677 5678 5680 5680 5681 5682 5683 5684 5684 5684 5681 5679 5679 5679 5678 5678 5678 5679 5679 5679 5677 5676 5678 5678 5675 5676 5677 5674 5675 5677 5676 5675 5674 5673 5671 5669 5666 5663 5662 5664 5666 5669 5672 5670 5665 5665 5666 5665 5663 5663 5663 5661 5660 5656 5653 5657 5657 5649 5647 5646 5641 5647 5658 5658 5657 5657 5654 5651 5649 5646 5645 5644 5642 5640 5638 5637 5636 5635
5662 5663 5668 5670 5667 5667 5666 5664 5667 5668 5667 5670 5674 5674 5674 5674 5676 5675 5675 5676 5674 5673 5673 5672 5672 5672 5671 5671 5671 5669 5668 5667 5669 5669 5668 5669 5670 5667 5667 5669 5668 5667 5667 5666 5664 5663 5661 5657 5654 5655 5657 5659 5664 5664 5659 5657 5658 5657 5655 5656 5656 5654 5654 5650 5645 5647 5648 5642 5641 5639 5632 5637 5648 5650 5647 5646 5646 5645 5643 5638 5636 5635 5634 5633 5631 5629 5627 5626
5656 5656 5660 5661 5659 5659 5657 5657 5660 5660 5659 5664 5666 5665 5665 5666 5667 5667 5666 5666 5666 5666 5665 5664 5665 5666 5665 5665 5664 5662 5661 5659 5660 5662 5661 5661 5663 5661 5660 5660 5660 5660 5660 5658 5657 5656 5654 5651 5648 5647 5648 5650 5654 5656 5653 5651 5650 5647 5647 5649 5648 5648 5648 5644 5639 5639 5636 5633 5635 5632 5623 5628 5638 5639 5638 5637 5636 5636 5634 5631 5629 5627 5626 5624 5622 5620 5619 5617
5649 5649 5651 5653 5651 5650 5649 5650 5653 5653 5654 5657 5656 5656 5657 5656 5657 5659 5658 5657 5657 5657 5656 5656 5657 5657 5657 5658 5656 5655 5655 5651 5651 5655 5655 5654 5655 5654 5653 5653 5653 5653 5652 5651 5650 5649 5646 5644 5642 5639 5638 5640 5645 5647 5646 5645 5642 5639 5640 5641 5640 5641 5641 5637 5634 5632 5626 5624 5628 5623 5616 5621 5627 5627 5628 5628 5626 5625 5624 5622 5620 5619 5617 5616 5613 5611 5609 5607
5641 5640 5642 5644 5643 5641 5642 5646 5647 5646 5648 5648 5647 5649 5650 5648 5649 5651 5650 5649 5649 5649 5648 5648 5649 5648 5648 5649 5647 5647 5647 5645 5644 5647 5649 5648 5647 5647 5647 5646 5646 5646 5645 5643 5642 5641 5638 5637 5637 5633 5629 5630 5635 5638 5639 5637 5633 5631 5633 5634 5633 5633 5633 5630 5628 5624 5618 5617 5618 5615 5611 5614 5617 5618 5620 5618 5615 5614 5613 5611 5609 5609 5608 5606 5603 5601 5599 5597
5632 5631 5634 5636 5634 5634 5636 5639 5639 5639 5641 5640 5639 5641 5643 5641 5641 5642 5642 5641 5641 5641 5640 5640 5641 5640 5640 5640 5639 5639 5640 5639 5636 5637 5641 5641 5639 5639 5639 5639 5638 5637 5637 5636 5634 5632 5629 5628 5630 5628 5624 5623 5625 5627 5630 5628 5622 5620 5623 5624 5625 5625 5624 5623 5618 5613 5611 5608 5604 5606 5608 5606 5607 5612 5613 5609 5603 5600 5600 5601 5599 5598 5597 5595 5593 5591 5589 5587
5623 5623 5626 5627 5625 5626 5629 5631 5632 5632 5633 5631 5630 5633 5636 5634 5632 5632 5634 5633 5633 5633 5632 5631 5633 5632 5632 5633 5631 5630 5632 5632 5628 5629 5632 5633 5631 5631 5630 5630 5630 5629 5629 5628 5626 5624 5620 5618 5622 5621 5617 5617 5618 5618 5620 5618 5613 5611 5612 5613 5616 5617 5616 5614 5608 5604 5603 5596 5590 5597 5602 5595 5595 5602 5603 5599 5593 5587 5586 5589 5589 5587 5585 5584 5583 5581 5578 5577
5615 5615 5617 5618 5617 5618 5620 5624 5625 5624 5623 5622 5622 5625 5627 5626 5623 5623 5625 5626 5626 5626 5624 5623 5625 5625 5625 5626 5622 5621 5624 5624 5621 5622 5624 5624 5623 5622 5621 5622 5622 5622 5622 5619 5617 5616 5611 5609 5614 5613 5609 5610 5612 5610 5610 5608 5603 5603 5603 5603 5606 5608 5608 5606 5600 5597 5595 5586 5581 5589 5592 5585 5584 5589 5589 5586 5583 5578 5574 5575 5576 5575 5573 5572 5571 5569 5567 5566
5607 5608 5608 5608 5609 5610 5612 5615 5617 5615 5614 5613 5614 5617 5619 5618 5616 5615 5616 5618 5618 5618 5618 5616 5617 5617 5617 5617 5615 5613 5616 5616 5613 5615 5616 5615 5615 5614 5613 5612 5613 5614 5614 5611 5609 5608 5603 5601 5605 5603 5599 5602 5604 5603 5601 5597 5593 5594 5594 5594 5596 5598 5599 5596 5590 5589 5587 5579 5577 5579 5576 5573 5576 5576 5573 5571 5571 5569 5566 5564 5564 5563 5561 5560 5559 5558 5556 5555
5599 5600 5599 5599 5601 5603 5603 5605 5607 5606 5606 5605 5606 5610 5611 5609 5609 5607 5607 5609 5610 5611 5611 5609 5609 5610 5610 5610 5608 5606 5607 5607 5605 5606 5608 5607 5607 5607 5605 5604 5605 5605 5605 5604 5601 5598 5596 5594 5595 5594 5589 5590 5596 5596 5591 5586 5585 5584 5584 5587 5590 5590 5588 5584 5581 5581 5578 5572 5571 5569 5561 5560 5565 5562 5558 5558 5558 5558 5556 5554 5553 5552 5550 5549 5547 5546 5546 5543
5591 5591 5591 5590 5591 5594 5594 5596 5597 5596 5597 5598 5600 5603 5602 5601 5602 5600 5597 5601 5604 5603 5604 5603 5602 5602 5602 5602 5601 5600 5599 5599 5598 5598 5599 5599 5599 5598 5597 5597 5597 5597 5597 5596 5592 5590 5589 5586 5586 5585 5578 5578 5587 5586 5578 5576 5575 5572 5574 5581 5585 5582 5577 5574 5572 5571 5569 5564 5561 5557 5550 5549 5551 5548 5545 5545 5545 5546 5546 5544 5542 5541 5539 5536 5535 5534 5534 5531
5582 5581 5582 5582 5582 5585 5586 5587 5588 5587 5588 5592 5593 5593 5593 5593 5594 5592 5589 5592 5596 5596 5596 5596 5595 5594 5593 5593 5593 5593 5592 5591 5591 5590 5590 5590 5590 5590 5589 5589 5590 5590 5588 5587 5584 5583 5582 5578 5577 5576 5567 5567 5576 5575 5568 5566 5560 5559 5570 5578 5577 5572 5566 5562 5560 5560 5560 5556 5548 5541 5539 5538 5536 5534 5534 5531 5530 5533 5534 5532 5530 5529 5525 5523 5523 5523 5521 5518